User: anonymous   Login
Location: Caltech
(34.1382°N, 118.1253°W)
Time: 09:45:01
(UTC-08:00)
Language:

HO-68 - Orbit

View from above orbital plane
View from above orbital plane
View from above satellite
View from above satellite

Ground track
Ground track

The orbit data is extracted from the following two-line orbital elements,

1 36122U 09072B   14324.75903660 -.00000060  00000-0 -43517-4 0  1367
2 36122 100.2287 011.7148 0007072 236.4620 123.5817 13.16320372237037
Epoch (UTC): 20 November 2014 18:13:00
Eccentricity: 0.0007072
inclination: 100.2287°
perigee height: 1193 km
apogee height: 1204 km
right ascension of ascending node: 11.7148°
argument of perigee: 236.4620°
revolutions per day: 13.16320372
mean anomaly at epoch: 123.5817°
orbit number at epoch: 23703

The dashed part of the orbit path shows where the satellite is in the earth's shadow,  

DLR